Flag for Germany Weather past 2 weeks in Aschersleben, Saxony-Anhalt, Germany

Now
55 °F

Overcast.


Feels Like: 55 °F
Forecast: 44 / 67 °F
Wind: 1 mph from Southwest

Location: Magdeburg

Current Time: May 23, 2015 at 6:41:25 AM

Latest Report: May 23, 2015 at 5:00 AM


Visibility: 12 mi

Pressure: 30.13 "Hg

Humidity: 79%

Dew point: 49 °F

Location of AscherslebenLocation

Historic Weather in Aschersleben — Graph

°F

Aschersleben temperature yesterday

Maximum temperature yesterday: 68 °F (at 5:00 PM)
Minimum temperature yesterday: 45 °F (at 6:00 AM)
Average temperature yesterday: 58 °F

Past Weeks' High & Low Weather Summary

 TemperatureHumidityPressure
High80 °F (May 12, 4:00 PM)97% (May 15, 5:00 AM)30.38 "Hg (May 15, 5:00 AM)
Low38 °F (May 15, 5:00 AM)27% (May 22, 3:00 PM)29.61 "Hg (May 19, 2:00 AM)
Average56 °F63%30.06 "Hg
* Reported May 8 6:00 AM — May 23 5:00 AM, Aschersleben, Weather by CustomWeather, © 2015

Note: Actual official high and low records may vary slightly from our data, if they occured in-between our weather recording intervals... More about our weather records

Advertising

Aschersleben weather history for previous 24 hours

 ConditionsComfort  
Time TempWeatherWind HumidityBarometerVisibility
5:00 AM
Sat, May 23
55 °FOvercast.1 mph79%30.13 "Hg12 mi
4:00 AM56 °FOvercast.1 mph75%30.14 "Hg12 mi
3:00 AM57 °FOvercast.1 mph68%30.15 "Hg13 mi
2:00 AM56 °FOvercast.1 mph72%30.17 "Hg16 mi
1:00 AM58 °FOvercast.1 mph69%30.19 "Hg16 mi
12:00 AM59 °FOvercast.1 mph65%30.19 "Hg16 mi
11:00 PM
Fri, May 22
60 °FOvercast.1 mph63%30.19 "Hg12 mi
10:00 PM62 °FOvercast.1 mph58%30.19 "Hg25 mi
9:00 PM64 °FOvercast.1 mph47%30.19 "Hg7 mi
8:00 PM65 °FOvercast.1 mph46%30.19 "Hg31 mi
7:00 PM66 °FOvercast.1 mph41%30.19 "Hg28 mi
6:00 PM67 °FScattered clouds.2 mph38%30.20 "Hg28 mi
5:00 PM68 °FScattered clouds.2 mph33%30.21 "Hg25 mi
4:00 PM68 °FScattered clouds.3 mph30%30.23 "Hg22 mi
3:00 PM67 °FScattered clouds.2 mph27%30.25 "Hg22 mi
2:00 PM65 °FScattered clouds.3 mph35%30.27 "Hg22 mi
1:00 PM63 °FScattered clouds.2 mph47%30.29 "Hg22 mi
12:00 PM62 °FPartly sunny.2 mph51%30.30 "Hg25 mi
10:00 AM58 °FPartly sunny.2 mph57%30.32 "Hg25 mi
9:00 AM56 °FScattered clouds.2 mph56%30.32 "Hg25 mi
8:00 AM54 °FPassing clouds.1 mph60%30.32 "Hg25 mi
7:00 AM49 °FPassing clouds.1 mph69%30.32 "Hg25 mi
6:00 AM45 °FScattered clouds.2 mph80%30.32 "Hg19 mi
Weather by CustomWeather, © 2015

See weather overviewHow to use our weather pages